Date,TemperatureHighF,TemperatureAvgF,TemperatureLowF,DewpointHighF,DewpointAvgF,DewpointLowF,HumidityHigh,HumidityAvg,HumidityLow,PressureMaxIn,PressureMinIn,WindSpeedMaxMPH,WindSpeedAvgMPH,GustSpeedMaxMPH,PrecipitationSumIn
2013-3-1,55,50,46,39,36,32,69,59,44,30.15,30.01,24,11,28,0.00
2013-3-2,46,42,39,31,28,25,66,56,47,30.22,30.10,24,18,29,0.00
2013-3-3,50,42,35,36,27,22,67,55,42,30.25,30.15,23,11,28,0.00
2013-3-4,60,56,49,57,50,41,92,79,66,30.19,30.01,18,11,20,0.00
2013-3-5,65,61,54,62,56,41,96,85,55,30.14,29.95,22,11,24,0.00
2013-3-6,58,51,44,43,32,26,68,49,32,30.28,30.16,22,16,25,0.00
2013-3-7,53,49,44,49,38,33,85,65,57,30.35,30.24,21,11,23,0.00
2013-3-8,59,55,51,52,45,38,85,70,52,30.31,30.20,11,6,13,0.00
2013-3-9,63,60,55,60,55,50,94,85,70,30.22,30.05,25,15,28,0.00
2013-3-10,66,64,63,63,61,59,91,89,84,30.05,29.95,28,23,31,0.00
2013-3-11,66,58,52,65,56,45,100,89,73,29.97,29.85,26,16,29,0.00
2013-3-12,61,53,47,46,41,36,78,64,52,30.19,29.97,25,16,30,0.00
2013-3-13,63,57,51,44,33,-100,72,50,28,30.35,30.19,17,11,21,0.00
2013-3-14,57,51,44,44,33,25,65,49,30,30.45,30.31,28,14,31,0.00
2013-3-15,64,60,54,56,50,44,87,70,52,30.32,30.18,13,7,15,0.00
2013-3-16,67,64,61,62,58,55,92,82,77,30.16,30.01,11,7,15,0.00
2013-3-17,66,64,62,64,63,61,99,95,91,30.01,29.91,17,8,20,0.00
2013-3-18,68,66,64,68,65,61,100,98,88,29.92,29.80,18,11,21,0.00
2013-3-19,68,64,59,67,58,54,100,83,67,30.03,29.87,26,12,30,0.00
2013-3-20,65,61,58,53,41,36,65,48,39,30.10,29.96,29,16,33,0.00
2013-3-21,59,55,51,45,36,28,58,49,35,30.08,29.92,25,13,29,0.00
2013-3-22,65,63,58,60,53,42,86,70,51,29.92,29.84,26,20,30,0.00
2013-3-23,69,66,63,69,64,59,100,95,85,29.87,29.62,24,14,28,0.00
2013-3-24,71,67,54,68,62,38,100,84,52,29.92,29.58,25,15,28,0.00
2013-3-25,57,49,41,38,18,-100,66,45,25,30.22,29.95,25,20,31,0.00
2013-3-26,54,47,40,32,27,21,64,45,33,30.36,30.22,28,17,33,0.00
2013-3-27,52,47,43,41,32,27,65,55,42,30.45,30.31,21,12,23,0.00
2013-3-28,59,55,51,47,43,38,85,65,45,30.37,30.27,14,8,15,0.00
2013-3-29,62,59,56,59,52,44,91,79,59,30.35,30.23,10,6,10,0.00
2013-3-30,67,64,61,63,59,-100,95,88,79,30.22,30.06,9,6,10,0.00
2013-3-31,70,66,63,66,64,62,100,93,83,30.08,29.92,17,5,29,0.00